Seward, AK

5:56 PM AKDT on April 21, 2018 (GMT -0800)
Seward

Weather History for PAWD - December, 2012

Change the Weather History Date:

Saturday, December 22, 2012

  Actual Average Record
Temperature  
Mean Temperature 12 °F -  
Max Temperature 18 °F 33 °F 48 °F (1955)
Min Temperature 7 °F 22 °F 2 °F (1979)
Degree Days  
Heating Degree Days 52    
Moisture  
Dew Point 3 °F    
Average Humidity 66    
Maximum Humidity 84    
Minimum Humidity 43    
Precipitation  
Precipitation 0.00 in - - ()
Sea Level Pressure  
Sea Level Pressure 29.73 in    
Wind  
Wind Speed 10 mph (North)    
Max Wind Speed 16 mph    
Max Gust Speed 23 mph    
Visibility 9 miles    
Events Snow    
Averages and records for this station are not official NWS values.
T = Trace of Precipitation, MM = Missing Value Source: NWS Daily Summary

Daily Weather History Graph

Daily Weather History Graph

Search for Another Location

Airport or City:

Astronomy

Dec. 22, 2012 Rise Set
Actual Time 10:01 AM AKST 3:51 PM AKST
Civil Twilight 9:03 AM AKST 4:49 PM AKST
Nautical Twilight 8:06 AM AKST 5:47 PM AKST
Astronomical Twilight 7:14 AM AKST 6:38 PM AKST
Moon 1:03 PM AKST 4:02 AM AKST
Length of Visible Light 7h 46m
Length of Day
5h 49m
Waxing Gibbous, 75% of the Moon is Illuminated
Dec 22
Waxing Gibbous
Dec 28
Full
Jan 4
Last Quarter
Jan 11
New
Jan 18
First Quarter

Hourly Weather History & Observations

Time (AKST) Temp. Windchill Dew Point Humidity Pressure Visibility Wind Dir Wind Speed Gust Speed Precip Events Conditions
12:53 AM 10.9 °F 0.2 °F -4.0 °F 51% 29.87 in 10.0 mi NNE 6.9 mph - N/A   Clear
1:53 AM 9.0 °F -4.2 °F -2.9 °F 59% 29.87 in 10.0 mi North 9.2 mph - N/A   Clear
3:53 AM 7.0 °F -10.4 °F -2.0 °F 67% 29.84 in 10.0 mi North 15.0 mph 21.9 mph N/A   Clear
4:53 AM 8.1 °F -6.2 °F -2.9 °F 61% 29.83 in 10.0 mi North 10.4 mph - N/A   Clear
5:53 AM 7.0 °F -4.5 °F -2.9 °F 64% 29.81 in 10.0 mi North 6.9 mph - N/A   Clear
6:53 AM 8.1 °F -5.3 °F -4.0 °F 58% 29.79 in 10.0 mi North 9.2 mph - N/A   Scattered Clouds
7:53 AM 9.0 °F -5.1 °F -4.0 °F 56% 29.78 in 10.0 mi North 10.4 mph - N/A   Partly Cloudy
8:53 AM 10.0 °F -3.7 °F -4.0 °F 53% 29.77 in 10.0 mi North 10.4 mph - N/A   Overcast
9:53 AM 12.9 °F -0.2 °F -2.9 °F 49% 29.76 in 10.0 mi North 10.4 mph - N/A   Overcast
10:53 AM 12.9 °F -0.2 °F -2.9 °F 49% 29.74 in 10.0 mi NNE 10.4 mph 17.3 mph N/A   Overcast
11:53 AM 12.9 °F -2.8 °F -4.0 °F 47% 29.74 in 10.0 mi North 15.0 mph 19.6 mph N/A   Overcast
12:53 PM 14.0 °F -2.0 °F -2.9 °F 47% 29.71 in 10.0 mi North 16.1 mph 23.0 mph N/A   Overcast
1:53 PM 17.1 °F 7.6 °F -2.0 °F 43% 29.71 in 10.0 mi North 6.9 mph - N/A   Overcast
2:53 PM 16.0 °F 5.3 °F 6.1 °F 65% 29.70 in 9.0 mi North 8.1 mph - 0.00 in Snow Light Snow
3:53 PM 15.1 °F 0.5 °F 7.0 °F 70% 29.68 in 5.0 mi North 13.8 mph 17.3 mph 0.00 in Snow Light Snow
4:53 PM 17.1 °F 4.3 °F 10.9 °F 77% 29.67 in 9.0 mi North 11.5 mph - 0.00 in Snow Light Snow
5:31 PM 17.6 °F 6.4 °F 12.2 °F 79% 29.67 in 3.0 mi North 9.2 mph - 0.00 in Snow Light Snow
5:49 PM 17.6 °F 5.7 °F 12.2 °F 79% 29.66 in 6.0 mi North 10.4 mph - 0.00 in Snow Light Snow
5:53 PM 18.0 °F 6.9 °F 12.9 °F 81% 29.66 in 6.0 mi North 9.2 mph - 0.00 in Snow Light Snow
6:53 PM 16.0 °F 2.9 °F 12.0 °F 84% 29.66 in 8.0 mi North 11.5 mph - 0.00 in Snow Light Snow
7:53 PM 17.1 °F 3.0 °F 12.0 °F 81% 29.65 in 10.0 mi North 13.8 mph 18.4 mph 0.00 in   Overcast
8:53 PM 17.1 °F 4.3 °F 12.0 °F 81% 29.65 in 10.0 mi North 11.5 mph - N/A   Overcast
9:53 PM 15.1 °F 6.4 °F 10.0 °F 80% 29.66 in 10.0 mi NNW 5.8 mph - N/A   Scattered Clouds
10:53 PM 10.9 °F -0.8 °F 6.1 °F 81% 29.67 in 10.0 mi North 8.1 mph - N/A   Clear
11:53 PM 10.0 °F -0.9 °F 5.0 °F 80% 29.67 in 10.0 mi NNW 6.9 mph - N/A   Clear